OneWeb SL0060

operational
NORAD ID: 45455 Int'l Des: 2020-020 Owner: ONEWEB Country: UK Constellation: oneweb
LEOCIRCULARPOLARONEWEB_TYPE

About OneWeb SL0060

Description loading...

Live Position

Loading 3D Globe...

Upcoming Passes

Altitude History

Altitude vs Time

uPlot chart will show altitude changes over time

Two-Line Element Set

1 45455U 20020AH 25303.74858615 -.00000359 00000-0 -10478-2 0 9995
2 45455 87.8840 66.7655 0001704 138.2272 221.8986 13.11414166272478
Epoch: Oct 30, 2025 • Age: 7 hours

Current Status

Altitude 1226.1 km
Velocity 7.24 km/s
Sub-Earth Point -18.87°S, 8.46°E
Launch Date Mar 21, 2020
Age 5.6 years
Type internet

Technical Details

Classification Payload
Mass 148.00 kg
Dry Mass 140.00 kg
Total Mass 148.00 kg
Length 1.30 m
Diameter 1.00 m
Span 5.00 m
Shape Trapezoid+2 pan
Manufacturer ONEWUS
Bus Type ARROW
Phase Status In Orbit
Owner/State ONEWEB/UK

Large Constellations

Loading constellations...